Temperature
17 16 16 16 15 15 15 15 15 14 14 14 14 14 13 13 13 13 13 13 13 13 14 14 14 14 15 15 15 15 15 15 15 15 14 15 15 15 15 14 13 13 13
17 16 16 16 16 15 15 15 15 14 14 14 14 14 13 13 13 13 13 13 13 13 13 13 14 14 15 15 15 15 15 15 15 14 14 15 14 14 14 14 14 13 12
17 17 16 16 16 16 15 15 15 15 14 14 14 14 14 13 13 13 13 13 13 13 13 13 14 14 14 15 15 15 15 15 15 14 14 15 15 14 14 14 14 13 13
17 17 16 16 16 16 15 15 15 15 15 14 14 14 14 14 14 13 13 13 13 13 13 13 13 14 14 14 15 15 15 15 14 14 14 14 15 15 14 14 14 14 13
18 17 16 16 16 15 15 15 15 15 14 14 14 14 14 14 14 14 14 13 13 13 13 14 14 14 14 14 14 15 15 15 14 14 14 13 14 15 14 14 14 14 13
18 17 16 16 16 16 15 15 15 15 14 14 14 14 14 14 14 14 14 14 14 14 14 14 14 14 14 14 15 15 15 15 14 14 14 14 14 14 14 14 14 14 13
17 17 16 16 16 16 15 15 15 15 14 14 14 14 14 14 14 14 14 14 14 14 14 14 14 14 14 14 14 14 15 15 15 14 14 14 14 14 14 14 14 14 13
17 16 16 16 16 16 15 15 15 14 14 14 14 14 14 14 14 14 14 14 14 14 14 13 13 14 14 14 14 14 14 15 15 14 14 14 13 13 13 14 14 13 12
16 15 15 15 15 15 15 15 15 14 14 14 14 14 14 14 14 14 14 14 14 14 13 13 13 14 14 14 14 14 14 14 14 14 14 13 13 13 12 12 13 13 13
14 14 14 14 14 14 14 14 14 14 14 14 14 14 14 13 13 14 14 13 13 13 13 13 14 14 14 14 14 14 14 14 14 14 14 14 13 12 12 12 13 13 13
13 13 13 13 13 13 14 14 14 14 14 14 14 13 13 13 13 13 13 13 13 13 13 13 13 14 14 14 14 13 13 13 13 13 13 13 13 12 12 12 12 13 12
12 12 12 12 12 12 13 13 13 13 13 13 13 13 13 13 13 13 13 13 13 12 12 13 13 14 14 13 13 13 13 13 13 13 13 13 12 12 12 12 12 12 12
11 11 11 11 12 12 12 12 12 12 12 12 12 12 12 12 12 12 13 13 12 12 12 13 13 13 13 13 13 12 12 12 12 12 12 12 12 12 12 11 11 11 11
11 11 11 11 11 11 11 11 11 11 11 11 12 12 12 12 12 12 12 12 12 12 12 12 12 12 12 12 12 12 12 12 11 11 12 12 11 11 11 11 11 11 11
11 11 11 11 11 11 11 11 11 11 11 11 11 11 11 11 12 12 12 12 12 12 12 12 12 12 11 11 11 11 11 11 11 11 11 11 11 11 11 11 11 11 11
11 11 11 11 11 11 11 11 11 11 11 11 11 11 11 11 11 12 12 12 12 12 12 12 11 11 11 11 11 11 11 11 11 11 11 11 11 11 11 11 10 10 10
11 11 11 10 10 10 10 11 11 11 11 11 11 11 11 11 11 11 12 12 12 11 11 11 11 11 11 11 11 11 11 11 10 10 10 10 10 10 10 10 10 10 10
11 11 11 11 10 10 10 10 10 10 10 10 10 10 10 11 11 11 11 11 11 11 10 10 10 10 10 10 10 10 10 10 10 10 10 10 10 10 10 10 10 10 10
11 11 11 11 10 10 10 10 10 10 10 10 9 9 9 10 10 10 10 10 10 10 10 10 10 10 10 10 10 10 10 10 10 10 10 10 10 10 10 10 10 9 9
11 11 11 10 10 10 10 10 10 10 10 9 9 9 9 9 9 9 9 9 9 9 9 9 9 9 9 9 9 9 9 9 9 9 9 9 9 9 9 9 9 9 9
11 11 11 10 10 10 10 10 10 10 10 9 9 9 9 9 9 9 9 9 9 9 9 9 9 9 9 9 9 9 9 9 9 9 9 9 9 9 9 9 9 9 9
11 10 10 10 10 10 10 10 10 10 10 10 9 9 9 9 9 9 9 9 9 9 9 9 9 9 9 9 9 9 9 9 9 9 9 9 9 9 9 9 9 9 9
11 10 10 10 10 10 10 10 10 10 10 10 10 9 9 9 9 9 9 9 9 9 9 9 9 9 9 9 9 8 8 8 8 8 8 8 8 8 8 8 8 8 8
10 10 10 10 10 10 10 10 10 10 10 10 10 9 9 9 9 9 9 9 9 9 9 9 9 9 8 8 8 8 8 8 8 8 8 8 8 8 8 8 8 8 8
10 10 10 10 10 10 10 10 10 10 10 10 9 9 9 9 9 9 9 9 9 9 9 9 8 8 8 8 8 8 8 8 8 8 8 8 8 8 8 8 8 8 7
10 10 10 10 10 10 10 10 10 10 10 9 9 9 9 9 9 9 9 9 9 9 8 8 8 8 8 8 8 8 8 8 8 8 8 8 8 8 8 8 7 7 7
Wind_Speed
9 8 7 6 6 6 5 5 5 6 7 8 9 10 10 10 10 9 8 8 6 6 6 7 9 9 8 9 9 9 9 9 8 5 5 7 11 10 8 7 6 6 6
9 9 8 6 6 7 7 6 6 7 7 8 9 10 10 10 10 10 9 9 7 6 6 8 9 8 11 9 8 10 9 10 9 8 6 7 11 11 10 8 7 6 5
10 9 9 8 7 7 7 7 7 8 8 8 8 9 10 10 10 10 10 9 8 8 7 8 9 9 11 9 10 10 9 9 8 8 7 6 7 9 10 9 8 7 6
10 10 9 8 8 8 8 8 8 9 9 9 9 9 9 10 11 11 10 10 10 10 10 10 10 10 11 10 10 11 10 10 10 9 8 8 7 8 9 9 9 8 7
10 9 9 8 8 8 8 8 9 9 9 10 9 9 9 8 9 10 10 11 11 11 11 11 11 11 11 10 9 10 10 10 10 10 10 9 9 8 10 10 9 8 8
8 8 7 7 7 7 8 9 9 9 9 10 10 10 9 8 6 7 8 9 10 11 11 11 10 12 13 14 14 12 11 12 12 11 11 12 13 12 10 10 10 9 7
6 6 6 7 8 8 8 8 9 9 10 10 11 10 10 8 8 8 9 8 9 10 11 11 9 10 11 12 13 16 15 16 14 12 13 15 13 13 13 13 12 11 7
3 4 5 6 7 8 8 9 9 9 9 9 9 10 9 8 8 8 8 10 10 10 11 11 11 11 11 11 11 12 13 14 15 15 14 12 10 10 13 12 11 10 7
2 1 2 4 6 8 9 9 9 9 9 9 9 9 9 8 8 8 8 9 9 10 9 10 10 11 9 9 10 10 10 10 11 13 10 4 3 8 10 9 10 10 8
5 3 2 2 4 6 8 8 8 9 9 9 9 9 9 8 8 9 10 8 8 7 6 7 7 8 5 9 10 10 10 9 8 8 9 8 8 12 16 13 11 11 9
6 5 4 2 1 3 5 6 7 8 9 10 10 9 9 8 8 8 8 7 6 5 5 4 3 5 5 8 8 6 5 4 6 7 7 8 8 9 11 11 9 9 9
7 7 7 6 4 2 1 3 5 7 8 9 10 9 7 7 6 7 7 7 6 5 3 3 2 5 6 6 5 3 3 3 4 4 5 6 7 7 8 9 9 9 8
6 7 7 6 6 4 2 2 3 4 6 7 8 8 7 6 5 6 6 7 7 5 1 4 5 7 7 6 5 5 5 4 4 4 5 6 6 7 7 6 7 7 7
6 6 6 6 6 6 4 2 2 3 4 5 6 6 6 6 5 4 5 6 7 6 4 7 7 5 4 5 7 6 4 4 3 3 3 3 4 5 6 6 5 6 5
5 5 5 6 6 6 6 6 4 4 3 1 2 3 3 4 2 1 3 3 4 5 6 6 5 5 5 5 4 4 4 4 4 3 3 3 4 5 5 6 5 6 7
4 4 4 4 4 4 5 6 12 10 10 10 9 5 5 5 3 1 1 2 4 5 4 4 4 4 4 4 4 4 4 4 4 4 4 4 4 5 5 5 5 6 8
3 2 2 2 2 3 2 3 5 6 10 11 10 9 8 6 6 5 6 7 6 3 2 2 2 2 2 3 3 3 3 3 3 4 4 4 5 5 5 6 6 7 8
2 2 1 2 1 1 2 2 2 3 4 5 7 9 9 8 8 8 7 6 4 1 1 1 1 1 2 2 3 3 3 3 4 4 4 5 5 6 6 6 7 9 9
1 1 2 2 1 2 2 2 3 4 4 4 4 5 6 6 7 5 2 2 3 2 1 1 0 1 1 2 3 3 4 4 4 4 5 5 5 6 6 7 7 8 9
2 3 2 1 1 2 2 3 4 4 4 4 4 3 2 2 3 3 2 2 2 1 1 0 1 2 2 3 3 3 4 4 5 5 5 5 5 6 7 7 7 7 7
3 4 3 1 1 2 2 3 4 4 4 4 4 3 3 2 3 3 2 1 1 0 0 1 1 2 3 3 3 4 5 5 5 5 5 5 5 6 6 6 6 6 6
4 4 3 2 2 2 2 3 4 4 5 5 4 3 0 1 2 2 2 1 1 1 1 1 2 2 3 3 4 4 5 5 6 6 6 6 5 6 6 6 6 5 5
5 5 4 3 3 4 3 3 4 4 4 4 4 3 2 2 2 2 2 2 2 1 1 2 2 2 3 3 3 4 5 5 5 6 6 6 6 6 5 6 7 6 7
6 5 5 4 4 4 4 4 4 4 4 4 4 3 3 2 3 3 3 2 2 2 2 2 3 4 5 4 3 4 4 6 7 6 7 7 6 5 5 6 6 7 6
6 5 5 5 5 4 4 4 4 5 4 4 4 3 3 3 3 3 3 3 3 4 4 4 4 4 6 6 6 6 9 10 9 7 6 5 6 5 5 5 5 5 5
7 6 5 5 5 5 4 5 5 5 5 4 3 3 3 3 3 4 4 4 4 4 5 5 7 7 8 8 9 10 11 10 10 8 5 4 4 4 3 3 5 4 5
Wind_Direction
191 190 194 197 199 200 206 202 201 196 190 187 187 182 178 173 169 164 161 164 177 195 213 225 226 224 226 225 226 230 235 235 235 214 165 184 184 193 178 193 182 191 146
192 193 198 195 196 205 205 202 201 198 200 201 195 190 188 184 177 173 171 172 178 199 217 229 235 230 231 228 223 226 228 231 230 216 180 197 195 193 186 190 192 195 172
190 194 196 199 204 210 210 205 206 205 203 204 202 201 197 191 189 190 188 184 190 203 219 233 240 236 235 231 226 229 230 229 229 220 184 177 196 195 193 193 198 193 189
193 198 202 206 207 212 213 211 212 210 210 210 209 209 208 203 201 202 200 200 203 211 220 231 237 235 236 236 232 234 230 225 220 218 189 178 181 193 195 196 197 196 199
197 205 209 210 207 212 214 214 215 216 218 214 213 214 210 210 213 212 209 210 214 217 224 230 238 244 246 242 239 236 230 224 216 216 206 192 186 179 198 198 199 190 197
203 210 209 214 208 210 214 217 214 213 218 218 219 218 214 218 191 199 225 220 224 227 232 235 238 242 243 236 237 238 233 225 220 218 216 212 208 201 192 190 191 186 198
207 210 211 214 211 211 212 211 209 212 216 218 219 217 218 209 177 196 218 239 237 239 240 241 241 242 241 246 231 224 227 232 238 236 231 229 223 205 191 190 193 196 205
215 222 219 220 217 212 210 208 209 212 208 214 217 214 214 203 185 206 211 237 245 245 244 246 244 244 239 239 236 227 227 224 226 234 245 248 240 206 193 196 196 199 192
50 315 246 228 223 217 213 210 208 208 207 210 209 209 211 201 188 208 222 239 245 247 247 247 248 246 235 221 230 227 228 230 224 226 246 260 171 174 180 190 184 184 195
39 21 356 261 235 227 223 218 210 210 212 211 210 211 212 214 183 201 226 239 243 244 243 244 242 250 240 203 224 223 226 225 214 207 212 198 187 183 183 197 192 198 206
38 36 33 15 292 247 228 218 211 210 211 212 210 208 209 212 187 196 222 242 247 250 243 238 229 191 209 201 222 225 224 222 211 207 200 194 191 189 195 211 211 214 217
40 37 32 27 22 25 214 204 204 202 202 203 201 196 197 196 204 196 213 237 266 252 245 229 167 156 170 173 191 160 153 191 205 199 192 188 187 186 193 204 213 216 233
34 33 30 34 38 40 56 133 174 190 192 193 194 187 185 189 192 202 221 224 228 243 189 91 121 151 162 167 159 166 180 192 196 202 203 199 193 186 180 185 198 209 226
25 27 32 34 46 52 52 69 132 167 183 190 193 187 180 182 191 203 215 207 196 199 164 132 131 143 159 132 154 178 195 190 202 209 210 196 177 177 175 170 176 179 196
19 30 43 50 55 61 59 41 41 60 45 66 164 163 168 166 122 341 265 233 212 183 160 159 165 168 172 175 182 182 181 183 197 197 198 194 191 187 180 172 171 178 194
23 32 40 56 68 80 91 79 50 56 61 57 50 53 77 65 63 71 109 102 107 142 182 183 181 182 184 186 190 191 196 204 205 204 207 210 212 209 198 183 183 193 206
33 33 38 47 73 90 105 118 113 86 74 67 63 62 67 73 75 84 102 116 131 166 197 177 177 180 187 191 197 208 212 210 211 218 222 222 222 223 219 211 208 214 221
45 67 43 64 71 90 98 99 105 124 117 89 70 66 70 74 80 91 110 124 119 137 93 122 158 184 207 214 214 217 221 221 223 228 230 233 232 231 229 228 224 225 228
62 70 67 59 68 89 102 112 108 105 110 113 107 87 79 89 87 69 41 92 111 118 104 87 27 244 241 239 235 237 239 240 240 241 241 239 239 238 238 240 241 239 236
127 77 35 55 98 107 119 121 116 116 114 111 101 91 97 109 94 83 67 66 82 92 103 182 233 248 248 246 247 250 255 253 250 250 251 249 246 245 246 245 243 241 237
165 147 165 200 65 79 94 104 113 117 113 105 94 75 18 67 84 84 80 75 60 51 326 295 288 276 268 263 257 256 261 267 266 266 266 261 257 254 253 252 249 243 238
178 173 176 164 140 120 115 119 121 124 123 117 114 118 70 62 77 73 64 48 21 351 336 310 297 299 294 285 280 271 267 269 271 266 263 260 256 253 252 248 244 238 229
180 177 180 173 159 146 150 131 126 122 123 122 120 120 118 89 75 65 63 53 38 31 360 333 324 318 308 296 288 288 288 289 289 285 276 263 253 248 245 245 244 239 229
177 179 176 169 164 161 153 143 134 133 133 132 129 124 113 100 88 72 60 49 43 36 19 3 356 350 346 338 322 307 301 302 297 285 275 266 258 251 241 238 239 238 236
173 171 168 166 164 163 158 154 152 147 144 141 135 130 118 96 82 65 53 46 43 42 36 29 20 9 2 1 355 346 338 325 308 294 282 267 259 250 242 240 238 235 227
170 167 163 162 164 165 167 167 160 151 147 145 142 130 113 94 79 65 51 43 41 41 36 31 24 17 8 0 354 348 343 334 322 302 276 269 265 261 248 241 239 232 221
Height
1487 1488 1488 1490 1490 1491 1492 1492 1493 1494 1495 1496 1497 1498 1500 1502 1504 1506 1508 1511 1514 1518 1521 1524 1527 1529 1531 1533 1534 1535 1537 1539 1540 1542 1541 1542 1543 1544 1545 1545 1546 1546 1546
1484 1485 1487 1488 1488 1489 1490 1491 1492 1493 1494 1496 1497 1498 1499 1501 1503 1505 1507 1509 1512 1515 1518 1521 1523 1526 1527 1529 1529 1531 1532 1534 1536 1537 1536 1538 1540 1542 1542 1543 1544 1544 1545
1482 1483 1484 1485 1486 1487 1488 1489 1491 1492 1493 1494 1496 1497 1499 1500 1502 1504 1506 1508 1510 1512 1515 1517 1520 1522 1523 1524 1525 1526 1528 1529 1530 1533 1533 1533 1536 1538 1539 1540 1541 1542 1542
1479 1480 1481 1482 1483 1484 1486 1487 1488 1490 1492 1493 1495 1496 1497 1499 1501 1502 1504 1506 1508 1509 1511 1513 1515 1517 1519 1520 1520 1521 1523 1524 1525 1527 1528 1528 1531 1533 1535 1536 1538 1539 1540
1476 1478 1479 1480 1480 1481 1483 1484 1486 1487 1489 1491 1492 1494 1496 1497 1499 1500 1502 1503 1505 1506 1507 1509 1510 1512 1513 1515 1515 1516 1518 1519 1520 1521 1523 1524 1525 1527 1529 1532 1534 1535 1536
1474 1475 1476 1476 1477 1478 1479 1481 1482 1483 1485 1487 1489 1491 1492 1494 1496 1497 1499 1500 1501 1503 1504 1505 1506 1506 1507 1508 1510 1511 1512 1513 1515 1516 1518 1519 1519 1522 1525 1527 1530 1532 1533
1471 1471 1472 1473 1473 1475 1476 1477 1478 1480 1482 1484 1486 1488 1489 1491 1492 1494 1495 1497 1498 1499 1499 1500 1500 1501 1502 1503 1504 1505 1506 1507 1509 1511 1512 1514 1516 1517 1519 1522 1525 1527 1530
1467 1468 1468 1468 1469 1471 1472 1473 1475 1477 1478 1480 1482 1484 1486 1488 1490 1491 1492 1493 1494 1495 1495 1495 1495 1496 1496 1497 1499 1500 1501 1502 1504 1505 1507 1509 1511 1512 1514 1518 1520 1524 1526
1464 1464 1464 1464 1465 1466 1468 1469 1471 1473 1475 1476 1478 1480 1483 1485 1486 1488 1489 1490 1490 1490 1490 1490 1491 1491 1491 1493 1494 1495 1497 1498 1499 1500 1501 1503 1504 1506 1509 1512 1515 1518 1520
1462 1461 1461 1461 1461 1462 1463 1464 1466 1468 1470 1472 1474 1476 1479 1481 1483 1484 1485 1486 1486 1486 1486 1486 1486 1486 1487 1488 1489 1491 1492 1493 1495 1495 1496 1497 1499 1501 1503 1506 1509 1513 1516
1461 1460 1459 1458 1458 1458 1458 1459 1461 1462 1464 1466 1469 1471 1474 1476 1478 1480 1481 1482 1483 1483 1482 1482 1482 1482 1483 1484 1485 1487 1488 1489 1490 1491 1492 1493 1494 1496 1498 1501 1504 1507 1511
1461 1459 1458 1457 1456 1455 1455 1456 1457 1458 1460 1462 1464 1467 1470 1472 1474 1476 1477 1478 1479 1479 1479 1478 1478 1479 1480 1481 1482 1484 1485 1486 1487 1487 1488 1489 1490 1491 1494 1496 1499 1502 1505
1462 1460 1459 1457 1456 1454 1454 1454 1455 1456 1457 1459 1462 1464 1466 1468 1470 1472 1474 1475 1475 1476 1476 1475 1475 1476 1477 1479 1480 1481 1482 1483 1483 1484 1484 1485 1487 1488 1490 1493 1495 1497 1499
1463 1461 1460 1458 1457 1455 1454 1454 1455 1455 1457 1458 1460 1462 1464 1466 1468 1469 1470 1471 1472 1473 1473 1473 1474 1474 1476 1477 1478 1479 1480 1481 1481 1481 1481 1482 1483 1485 1486 1488 1490 1492 1494
1464 1463 1461 1460 1458 1457 1456 1456 1456 1457 1458 1459 1460 1462 1464 1465 1466 1466 1467 1468 1469 1470 1471 1471 1472 1473 1474 1475 1476 1477 1477 1478 1478 1479 1479 1479 1480 1481 1483 1484 1486 1487 1488
1465 1464 1463 1462 1461 1460 1459 1459 1459 1459 1459 1460 1461 1462 1462 1463 1464 1464 1464 1465 1466 1467 1469 1469 1470 1471 1472 1473 1474 1474 1475 1475 1476 1476 1477 1477 1478 1479 1480 1481 1482 1483 1484
1465 1464 1464 1463 1463 1462 1462 1462 1461 1461 1461 1461 1461 1461 1461 1462 1462 1462 1463 1463 1464 1465 1467 1468 1469 1469 1470 1471 1471 1472 1472 1472 1473 1473 1474 1474 1475 1475 1476 1476 1477 1478 1478
1466 1465 1465 1464 1463 1463 1463 1462 1462 1462 1461 1461 1461 1461 1461 1461 1461 1461 1462 1463 1463 1464 1465 1466 1467 1467 1468 1469 1469 1469 1470 1470 1470 1470 1470 1470 1471 1471 1471 1472 1472 1472 1473
1466 1466 1465 1465 1464 1464 1463 1463 1462 1462 1462 1461 1461 1461 1461 1461 1461 1461 1462 1462 1463 1463 1464 1464 1465 1465 1466 1466 1467 1467 1467 1467 1467 1467 1467 1467 1467 1467 1467 1467 1467 1467 1467
1466 1466 1465 1466 1466 1465 1464 1464 1463 1463 1463 1463 1463 1462 1462 1462 1462 1462 1462 1462 1463 1463 1463 1464 1464 1464 1464 1464 1464 1464 1464 1464 1464 1464 1464 1463 1463 1463 1462 1462 1462 1461 1461
1466 1466 1466 1466 1467 1466 1466 1465 1465 1464 1464 1464 1464 1464 1464 1464 1464 1464 1463 1464 1464 1464 1463 1463 1463 1463 1462 1462 1462 1462 1461 1461 1461 1460 1460 1459 1459 1458 1458 1457 1457 1456 1456
1466 1466 1466 1467 1466 1466 1466 1466 1466 1466 1466 1466 1466 1466 1466 1465 1465 1465 1465 1465 1464 1464 1464 1463 1462 1462 1461 1460 1460 1459 1458 1458 1457 1456 1455 1455 1454 1454 1453 1452 1452 1451 1451
1465 1465 1466 1466 1466 1466 1467 1467 1467 1467 1467 1467 1467 1467 1467 1467 1467 1467 1466 1466 1465 1464 1463 1463 1462 1461 1459 1458 1457 1456 1456 1455 1454 1452 1451 1450 1449 1449 1448 1448 1447 1446 1446
1463 1464 1465 1466 1466 1467 1467 1468 1468 1468 1468 1469 1469 1469 1469 1469 1468 1468 1467 1466 1465 1464 1463 1462 1461 1460 1458 1457 1455 1454 1453 1451 1450 1449 1447 1446 1445 1444 1443 1443 1442 1442 1441
1462 1464 1464 1465 1466 1467 1467 1468 1468 1469 1469 1470 1470 1470 1470 1469 1469 1468 1467 1466 1465 1464 1463 1461 1460 1458 1456 1455 1453 1452 1450 1449 1447 1445 1444 1442 1441 1439 1438 1438 1437 1436 1436
1461 1463 1464 1465 1466 1467 1467 1468 1469 1469 1470 1470 1470 1470 1470 1470 1469 1468 1467 1466 1465 1463 1462 1460 1458 1456 1454 1453 1451 1449 1447 1445 1444 1443 1441 1439 1438 1437 1435 1434 1433 1432 1431